This is the latest recevied weather packets stored in our database for station/object DL4MGC-10. If no packets are shown the sender has not sent any weather packets the latest 10 day(s).
| Time | Temp. | Humidity | Pressure | Rain* | Wind** | Luminosity | Snow |
|---|---|---|---|---|---|---|---|
| 1777757053 | 14.44° C | 68% | 1016.8 hPa | - | - | - | - |
| 1777756153 | 15.56° C | 64% | 1016.9 hPa | - | - | - | - |
| 1777755252 | 15.56° C | 65% | 1017 hPa | - | - | - | - |
| 1777754352 | 15.56° C | 64% | 1017.1 hPa | - | - | - | - |
| 1777753452 | 16.11° C | 63% | 1017.2 hPa | - | - | - | - |
| 1777752552 | 17.22° C | 58% | 1017.2 hPa | - | - | - | - |
| 1777751652 | 17.22° C | 59% | 1017.1 hPa | - | - | - | - |
| 1777750752 | 16.11° C | 60% | 1017 hPa | - | - | - | - |
| 1777749852 | 18.33° C | 59% | 1017 hPa | - | - | - | - |
| 1777748951 | 19.44° C | 57% | 1016.9 hPa | - | - | - | - |
| 1777748051 | 19.44° C | 55% | 1016.8 hPa | - | - | - | - |
| 1777747151 | 21.11° C | 51% | 1016.8 hPa | - | - | - | - |
| 1777746251 | 21.67° C | 48% | 1016.7 hPa | - | - | - | - |
| 1777745351 | 22.78° C | 41% | 1016.7 hPa | - | - | - | - |
| 1777744451 | 23.89° C | 39% | 1016.7 hPa | - | - | - | - |
| 1777743551 | 23.89° C | 38% | 1016.8 hPa | - | - | - | - |
| 1777742651 | 24.44° C | 38% | 1016.8 hPa | - | - | - | - |
| 1777741751 | 24.44° C | 37% | 1016.9 hPa | - | - | - | - |
| 1777740851 | 25° C | 37% | 1016.8 hPa | - | - | - | - |
| 1777739951 | 25.56° C | 36% | 1017 hPa | - | - | - | - |
| 1777739050 | 26.11° C | 35% | 1017.2 hPa | - | - | - | - |
| 1777738150 | 26.11° C | 35% | 1017.4 hPa | - | - | - | - |
| 1777737250 | 26.11° C | 33% | 1017.5 hPa | - | - | - | - |
| 1777736350 | 26.11° C | 33% | 1017.6 hPa | - | - | - | - |
| 1777735450 | 26.67° C | 32% | 1017.9 hPa | - | - | - | - |
* Rain since midnight (hover to see other rain measurements)
** Current wind speed in m/s (hover to see current wind gust speed)